Location: ?????????
(41.1143°N, 22.7905°E)
Time: 21:51:29
(UTC+00:00)

Landsat 7 - Pass Details

Date: 13 December 2025
Orbit: 680 x 682 km, 97.9° (Epoch: 21 January)

Event Time Altitude Azimuth Distance (km) Brightness Sun altitude
Rises 15:36:12 0° 151° (SSE) 3,030 7.1 -6.8°
Reaches altitude 10° 15:38:29 10° 145° (SE) 2,119 6.2 -7.2°
Maximum altitude 15:42:55 47° 72° (ENE) 907 4.0 -7.9°
Drops below altitude 10° 15:47:23 10° 359° (N) 2,134 6.1 -8.7°
Sets 15:49:42 0° 354° (N) 3,054 6.9 -9.1°
